| time (UTC) | temp F | wind direction | speed knots | gust knots | rain 1hr in | rain 24hr in | rain mn in | humidity % | barometer mb |
| 20260503192657 | 79 | 220 | 10.4 | 12.2 | 0.00 | 0.00 | 0.00 | 37 | 1014.6 |
| 20260503192152 | 80 | 201 | 5.2 | 7.0 | 0.00 | 0.00 | 0.00 | 37 | 1014.7 |
| 20260503191649 | 80 | 234 | 5.2 | 6.1 | 0.00 | 0.00 | 0.00 | 37 | 1014.9 |
| 20260503191147 | 79 | 209 | 2.6 | 6.1 | 0.00 | 0.00 | 0.00 | 38 | 1014.7 |
| 20260503190643 | 79 | 202 | 4.3 | 7.0 | 0.00 | 0.00 | 0.00 | 37 | 1015.0 |
| 20260503190140 | 79 | 201 | 4.3 | 7.0 | 0.00 | 0.00 | 0.00 | 37 | 1015.0 |
| 20260503185637 | 79 | 239 | 2.6 | 5.2 | 0.00 | 0.00 | 0.00 | 39 | 1015.1 |
| 20260503185132 | 79 | 320 | 4.3 | 6.1 | 0.00 | 0.00 | 0.00 | 38 | 1015.0 |
| 20260503184627 | 78 | 292 | 3.5 | 3.5 | 0.00 | 0.00 | 0.00 | 38 | 1015.2 |
| 20260503184124 | 79 | 208 | 4.3 | 6.1 | 0.00 | 0.00 | 0.00 | 38 | 1015.3 |
| 20260503183620 | 79 | 220 | 3.5 | 3.5 | 0.00 | 0.00 | 0.00 | 38 | 1015.4 |
| 20260503183118 | 78 | 295 | 1.7 | 2.6 | 0.00 | 0.00 | 0.00 | 41 | 1015.2 |
| 20260503182616 | 77 | 218 | 5.2 | 9.6 | 0.00 | 0.00 | 0.00 | 38 | 1015.3 |
| 20260503182114 | 78 | 217 | 7.0 | 8.7 | 0.00 | 0.00 | 0.00 | 38 | 1015.6 |
| 20260503181610 | 78 | 236 | 3.5 | 7.0 | 0.00 | 0.00 | 0.00 | 38 | 1015.7 |
| 20260503181107 | 78 | 86 | 2.6 | 3.5 | 0.00 | 0.00 | 0.00 | 39 | 1015.6 |
| 20260503180605 | 77 | 218 | 5.2 | 7.8 | 0.00 | 0.00 | 0.00 | 38 | 1015.7 |
| 20260503175559 | 76 | 200 | 2.6 | 3.5 | 0.00 | 0.00 | 0.00 | 40 | 1015.9 |
| 20260503175056 | 77 | 208 | 6.1 | 7.0 | 0.00 | 0.00 | 0.00 | 39 | 1016.0 |
| 20260503174553 | 76 | 226 | 2.6 | 3.5 | 0.00 | 0.00 | 0.00 | 40 | 1015.9 |
| 20260503174049 | 76 | 212 | 4.3 | 7.0 | 0.00 | 0.00 | 0.00 | 38 | 1016.1 |
| 20260503173545 | 76 | 211 | 3.5 | 5.2 | 0.00 | 0.00 | 0.00 | 39 | 1016.1 |
| 20260503173041 | 74 | 303 | 3.5 | 6.1 | 0.00 | 0.00 | 0.00 | 39 | 1016.2 |
| 20260503172539 | 75 | 223 | 11.3 | 13.9 | 0.00 | 0.00 | 0.00 | 39 | 1016.3 |
| 20260503172036 | 74 | 239 | 3.5 | 3.5 | 0.00 | 0.00 | 0.00 | 42 | 1016.5 |
| 20260503171532 | 74 | 235 | 6.1 | 7.8 | 0.00 | 0.00 | 0.00 | 42 | 1016.4 |
| 20260503171030 | 74 | 221 | 5.2 | 8.7 | 0.00 | 0.00 | 0.00 | 40 | 1016.6 |
| 20260503170526 | 74 | 237 | 3.5 | 6.1 | 0.00 | 0.00 | 0.00 | 41 | 1016.7 |
| 20260503150918 | 67 | 174 | 3.5 | 5.2 | 0.00 | 0.00 | 0.00 | 46 | 1017.5 |
| 20260503150415 | 67 | 103 | 4.3 | 6.1 | 0.00 | 0.00 | 0.00 | 46 | 1017.6 |
| 20260503131308 | 57 | 178 | 3.5 | 3.5 | 0.00 | 0.00 | 0.00 | 51 | 1018.4 |
| 20260503130805 | 57 | 210 | 1.7 | 2.6 | 0.00 | 0.00 | 0.00 | 52 | 1018.5 |
| 20260503130302 | 56 | 175 | 5.2 | 7.8 | 0.00 | 0.00 | 0.00 | 52 | 1018.5 |
| 20260503110656 | 47 | 50 | 1.7 | 1.7 | 0.00 | 0.00 | 0.00 | 65 | 1018.4 |
| 20260503110153 | 47 | 203 | 1.7 | 2.6 | 0.00 | 0.00 | 0.00 | 64 | 1018.3 |
| 20260503100120 | 48 | 186 | 2.6 | 3.5 | 0.00 | 0.00 | 0.00 | 64 | 1018.5 |
| 20260503081509 | 48 | 69 | 1.7 | 1.7 | 0.00 | 0.00 | 0.00 | 62 | 1019.2 |
| 20260503081007 | 48 | 50 | 0.9 | 0.9 | 0.00 | 0.00 | 0.00 | 62 | 1019.2 |
| 20260503080503 | 48 | 61 | 1.7 | 2.6 | 0.00 | 0.00 | 0.00 | 64 | 1019.3 |
| 20260503072939 | 48 | 51 | 0.9 | 0.9 | 0.00 | 0.00 | 0.00 | 65 | 1019.4 |
| 20260503072437 | 47 | 66 | 2.6 | 2.6 | 0.00 | 0.00 | 0.00 | 66 | 1019.4 |
| 20260503071934 | 46 | 49 | 0.9 | 0.9 | 0.00 | 0.00 | 0.00 | 69 | 1019.4 |
| 20260503071430 | 46 | 53 | 0.9 | 0.9 | 0.00 | 0.00 | 0.00 | 70 | 1019.5 |
| 20260503070926 | 46 | 47 | 0.9 | 0.9 | 0.00 | 0.00 | 0.00 | 71 | 1019.6 |
| 20260503070424 | 46 | 69 | 0.9 | 0.9 | 0.00 | 0.00 | 0.00 | 73 | 1019.5 |
| 20260503054837 | 46 | 50 | 0.0 | 0.0 | 0.00 | 0.00 | 0.00 | 80 | 1020.0 |
| 20260503054333 | 46 | 50 | 0.0 | 0.0 | 0.00 | 0.00 | 0.00 | 80 | 1020.2 |
| 20260503053831 | 46 | 50 | 0.0 | 0.0 | 0.00 | 0.00 | 0.00 | 79 | 1020.2 |
| 20260503053329 | 46 | 50 | 0.0 | 0.0 | 0.00 | 0.00 | 0.00 | 78 | 1020.2 |
| 20260503052826 | 47 | 50 | 0.0 | 0.0 | 0.00 | 0.00 | 0.00 | 78 | 1020.1 |
| 20260503052322 | 46 | 39 | 0.0 | 0.0 | 0.00 | 0.00 | 0.00 | 79 | 1020.4 |
| 20260503051819 | 46 | 36 | 0.0 | 0.0 | 0.00 | 0.00 | 0.00 | 80 | 1020.4 |
| 20260503051315 | 47 | 34 | 0.0 | 0.0 | 0.00 | 0.00 | 0.00 | 80 | 1020.4 |
| 20260503050812 | 47 | 34 | 0.0 | 0.0 | 0.00 | 0.00 | 0.00 | 78 | 1020.4 |
| 20260503050308 | 48 | 34 | 0.0 | 0.0 | 0.00 | 0.00 | 0.00 | 77 | 1020.1 |
| 20260503045806 | 48 | 33 | 0.0 | 0.0 | 0.00 | 0.00 | 0.00 | 75 | 1020.4 |
| 20260503045305 | 48 | 34 | 0.0 | 0.0 | 0.00 | 0.00 | 0.00 | 75 | 1020.3 |
| 20260503044759 | 48 | 34 | 0.0 | 0.0 | 0.00 | 0.00 | 0.00 | 75 | 1020.5 |
| 20260503044257 | 48 | 33 | 0.0 | 0.0 | 0.00 | 0.00 | 0.00 | 75 | 1020.5 |
| 20260503043754 | 48 | 33 | 0.0 | 0.0 | 0.00 | 0.00 | 0.00 | 75 | 1020.3 |
| 20260503043251 | 48 | 33 | 0.0 | 0.0 | 0.00 | 0.00 | 0.00 | 74 | 1020.4 |
| 20260503042746 | 47 | 30 | 0.0 | 0.0 | 0.00 | 0.00 | 0.00 | 77 | 1020.3 |
| 20260503042244 | 47 | 30 | 0.0 | 0.0 | 0.00 | 0.00 | 0.00 | 78 | 1020.3 |
| 20260503041739 | 47 | 22 | 0.0 | 0.0 | 0.00 | 0.00 | 0.00 | 77 | 1020.2 |
| 20260503041237 | 47 | 23 | 0.0 | 0.0 | 0.00 | 0.00 | 0.00 | 78 | 1020.3 |
| 20260503040735 | 48 | 21 | 0.0 | 0.0 | 0.00 | 0.00 | 0.00 | 77 | 1020.3 |
| 20260503040232 | 48 | 21 | 0.0 | 0.0 | 0.00 | 0.00 | 0.00 | 75 | 1020.3 |
| 20260503035729 | 48 | 21 | 0.0 | 0.0 | 0.00 | 0.00 | 0.00 | 74 | 1020.2 |
| 20260503035227 | 48 | 22 | 0.0 | 0.0 | 0.00 | 0.00 | 0.00 | 74 | 1020.4 |
| 20260503034724 | 48 | 22 | 0.0 | 0.0 | 0.00 | 0.00 | 0.00 | 74 | 1020.3 |
| 20260503034220 | 48 | 23 | 0.0 | 0.0 | 0.00 | 0.00 | 0.00 | 74 | 1020.4 |
| 20260503033718 | 48 | 349 | 0.0 | 0.0 | 0.00 | 0.00 | 0.00 | 73 | 1020.7 |
| 20260503033210 | 48 | 359 | 0.0 | 0.0 | 0.00 | 0.00 | 0.00 | 73 | 1020.6 |
| 20260503032708 | 49 | 359 | 0.0 | 0.0 | 0.00 | 0.00 | 0.00 | 72 | 1020.3 |
| 20260503032207 | 49 | 359 | 0.0 | 0.0 | 0.00 | 0.00 | 0.00 | 72 | 1020.3 |
| 20260503031703 | 49 | 357 | 0.0 | 0.0 | 0.00 | 0.00 | 0.00 | 70 | 1020.3 |
| 20260503031202 | 49 | 359 | 0.0 | 0.0 | 0.00 | 0.00 | 0.00 | 69 | 1020.3 |
| 20260503030657 | 49 | 356 | 0.0 | 0.0 | 0.00 | 0.00 | 0.00 | 68 | 1020.4 |
| 20260503030154 | 49 | 359 | 0.0 | 0.0 | 0.00 | 0.00 | 0.00 | 71 | 1020.4 |
| 20260503025651 | 49 | 359 | 0.0 | 0.0 | 0.00 | 0.00 | 0.00 | 70 | 1020.2 |
| 20260503025149 | 49 | 356 | 0.0 | 0.0 | 0.00 | 0.00 | 0.00 | 67 | 1020.3 |
| 20260503024645 | 50 | 356 | 0.0 | 0.0 | 0.00 | 0.00 | 0.00 | 65 | 1020.3 |
| 20260503024142 | 50 | 357 | 0.0 | 0.0 | 0.00 | 0.00 | 0.00 | 65 | 1020.3 |
| 20260503023639 | 50 | 355 | 0.0 | 0.0 | 0.00 | 0.00 | 0.00 | 64 | 1020.4 |
| 20260503023136 | 51 | 356 | 0.0 | 0.0 | 0.00 | 0.00 | 0.00 | 65 | 1020.3 |
| 20260503022632 | 51 | 356 | 0.0 | 0.0 | 0.00 | 0.00 | 0.00 | 64 | 1020.1 |
| 20260503022131 | 51 | 359 | 0.0 | 0.0 | 0.00 | 0.00 | 0.00 | 64 | 1020.0 |
| 20260503021629 | 51 | 356 | 0.0 | 0.0 | 0.00 | 0.00 | 0.00 | 63 | 1020.2 |
| 20260503021125 | 51 | 358 | 0.0 | 0.0 | 0.00 | 0.00 | 0.00 | 62 | 1020.1 |
| 20260503020622 | 52 | 352 | 0.0 | 0.0 | 0.00 | 0.00 | 0.00 | 59 | 1020.0 |
| 20260503020120 | 52 | 345 | 0.0 | 0.0 | 0.00 | 0.00 | 0.00 | 60 | 1020.0 |
| 20260503015616 | 52 | 0 | 0.0 | 0.0 | 0.00 | 0.00 | 0.00 | 59 | 1019.9 |
| 20260503015113 | 52 | 14 | 0.0 | 0.0 | 0.00 | 0.00 | 0.00 | 61 | 1020.0 |
| 20260503014609 | 53 | 14 | 0.0 | 0.0 | 0.00 | 0.00 | 0.00 | 60 | 1019.9 |
| 20260503014107 | 53 | 354 | 0.0 | 0.0 | 0.00 | 0.00 | 0.00 | 58 | 1019.7 |
| 20260503013604 | 53 | 359 | 0.0 | 0.0 | 0.00 | 0.00 | 0.00 | 59 | 1019.9 |
| 20260503013102 | 54 | 359 | 0.0 | 0.0 | 0.00 | 0.00 | 0.00 | 56 | 1019.9 |
| 20260503012559 | 54 | 359 | 0.0 | 0.0 | 0.00 | 0.00 | 0.00 | 55 | 1019.6 |
| 20260503012055 | 55 | 358 | 0.0 | 0.0 | 0.00 | 0.00 | 0.00 | 57 | 1019.5 |
| 20260503011552 | 55 | 0 | 0.0 | 0.0 | 0.00 | 0.00 | 0.00 | 56 | 1019.7 |
| 20260503011049 | 56 | 0 | 0.0 | 0.0 | 0.00 | 0.00 | 0.00 | 52 | 1019.6 |
| 20260503010545 | 57 | 0 | 0.0 | 0.0 | 0.00 | 0.00 | 0.00 | 47 | 1019.6 |
| 20260503010043 | 58 | 0 | 0.0 | 0.0 | 0.00 | 0.00 | 0.00 | 48 | 1019.5 |
| 20260503005540 | 59 | 359 | 0.0 | 0.0 | 0.00 | 0.00 | 0.00 | 45 | 1019.5 |
| 20260503005037 | 60 | 0 | 0.0 | 0.0 | 0.00 | 0.00 | 0.00 | 43 | 1019.5 |
| 20260503004533 | 60 | 2 | 0.0 | 0.0 | 0.00 | 0.00 | 0.00 | 40 | 1019.7 |
| 20260503004032 | 61 | 4 | 0.0 | 0.0 | 0.00 | 0.00 | 0.00 | 40 | 1019.5 |
| 20260503003528 | 62 | 11 | 0.0 | 0.0 | 0.00 | 0.00 | 0.00 | 39 | 1019.8 |
| 20260503003025 | 62 | 3 | 0.0 | 0.0 | 0.00 | 0.00 | 0.00 | 37 | 1019.5 |
| 20260503002522 | 63 | 2 | 0.0 | 0.0 | 0.00 | 0.00 | 0.00 | 35 | 1019.6 |
| 20260503002019 | 64 | 346 | 0.0 | 0.0 | 0.00 | 0.00 | 0.00 | 34 | 1019.7 |
| 20260503001515 | 64 | 0 | 0.0 | 0.0 | 0.00 | 0.00 | 0.00 | 33 | 1019.6 |
| 20260503001013 | 64 | 1 | 0.0 | 0.9 | 0.00 | 0.00 | 0.00 | 32 | 1019.5 |
| 20260503000510 | 64 | 0 | 0.9 | 0.9 | 0.00 | 0.00 | 0.00 | 31 | 1019.6 |
| 20260503000007 | 64 | 17 | 0.0 | 0.9 | 0.00 | 0.00 | 0.00 | 32 | 1019.6 |
| 20260502235503 | 64 | 344 | 1.7 | 1.7 | 0.00 | 0.00 | 0.00 | 32 | 1019.6 |
| 20260502235001 | 64 | 356 | 0.9 | 1.7 | 0.00 | 0.00 | 0.00 | 32 | 1019.6 |
| 20260502234457 | 64 | 6 | 2.6 | 2.6 | 0.00 | 0.00 | 0.00 | 31 | 1019.7 |
| 20260502233955 | 65 | 331 | 2.6 | 3.5 | 0.00 | 0.00 | 0.00 | 30 | 1019.7 |
| 20260502233450 | 65 | 331 | 3.5 | 3.5 | 0.00 | 0.00 | 0.00 | 30 | 1019.7 |
| 20260502232947 | 65 | 324 | 3.5 | 3.5 | 0.00 | 0.00 | 0.00 | 29 | 1019.7 |
| 20260502232443 | 65 | 346 | 0.9 | 0.9 | 0.00 | 0.00 | 0.00 | 31 | 1019.7 |
| 20260502231940 | 64 | 336 | 3.5 | 3.5 | 0.00 | 0.00 | 0.00 | 30 | 1019.9 |
| 20260502231438 | 64 | 331 | 4.3 | 5.2 | 0.00 | 0.00 | 0.00 | 30 | 1019.8 |
| 20260502230936 | 65 | 341 | 6.1 | 7.0 | 0.00 | 0.00 | 0.00 | 30 | 1019.8 |
| 20260502230433 | 64 | 263 | 1.7 | 2.6 | 0.00 | 0.00 | 0.00 | 29 | 1020.0 |
| 20260502225931 | 64 | 59 | 2.6 | 3.5 | 0.00 | 0.00 | 0.00 | 29 | 1020.0 |
| 20260502225427 | 65 | 323 | 5.2 | 6.1 | 0.00 | 0.00 | 0.00 | 31 | 1019.8 |
| 20260502224924 | 65 | 293 | 3.5 | 3.5 | 0.00 | 0.00 | 0.00 | 30 | 1019.9 |
| 20260502224420 | 64 | 340 | 0.9 | 0.9 | 0.00 | 0.00 | 0.00 | 31 | 1020.1 |
| 20260502223917 | 65 | 1 | 4.3 | 5.2 | 0.00 | 0.00 | 0.00 | 30 | 1019.9 |
| 20260502223415 | 64 | 358 | 3.5 | 3.5 | 0.00 | 0.00 | 0.00 | 30 | 1019.9 |
| 20260502222913 | 65 | 18 | 1.7 | 1.7 | 0.00 | 0.00 | 0.00 | 29 | 1019.9 |
| 20260502222410 | 65 | 322 | 3.5 | 5.2 | 0.00 | 0.00 | 0.00 | 30 | 1019.9 |
| 20260502221911 | 66 | 347 | 2.6 | 3.5 | 0.00 | 0.00 | 0.00 | 31 | 1020.0 |
| 20260502221408 | 65 | 22 | 3.5 | 3.5 | 0.00 | 0.00 | 0.00 | 28 | 1019.8 |
| 20260502220905 | 65 | 287 | 4.3 | 6.1 | 0.00 | 0.00 | 0.00 | 31 | 1020.0 |
| 20260502220400 | 65 | 344 | 4.3 | 6.1 | 0.00 | 0.00 | 0.00 | 30 | 1019.9 |
| 20260502215857 | 65 | 312 | 4.3 | 5.2 | 0.00 | 0.00 | 0.00 | 32 | 1019.9 |
| 20260502215355 | 65 | 28 | 2.6 | 3.5 | 0.00 | 0.00 | 0.00 | 31 | 1019.9 |
| 20260502214851 | 66 | 6 | 3.5 | 5.2 | 0.00 | 0.00 | 0.00 | 29 | 1020.0 |
| 20260502214348 | 66 | 209 | 3.5 | 5.2 | 0.00 | 0.00 | 0.00 | 30 | 1020.1 |
| 20260502213845 | 65 | 315 | 1.7 | 1.7 | 0.00 | 0.00 | 0.00 | 32 | 1020.1 |
| 20260502213342 | 64 | 301 | 1.7 | 2.6 | 0.00 | 0.00 | 0.00 | 31 | 1020.2 |
| 20260502212841 | 65 | 317 | 9.6 | 11.3 | 0.00 | 0.00 | 0.00 | 29 | 1020.3 |
| 20260502212339 | 64 | 29 | 7.8 | 9.6 | 0.00 | 0.00 | 0.00 | 31 | 1020.2 |
| 20260502211836 | 65 | 13 | 6.1 | 7.0 | 0.00 | 0.00 | 0.00 | 29 | 1020.2 |
| 20260502211331 | 65 | 322 | 2.6 | 2.6 | 0.00 | 0.00 | 0.00 | 32 | 1020.4 |
| 20260502210829 | 65 | 10 | 1.7 | 2.6 | 0.00 | 0.00 | 0.00 | 31 | 1020.3 |
| 20260502210326 | 66 | 1 | 4.3 | 7.0 | 0.00 | 0.00 | 0.00 | 31 | 1020.6 |
| 20260502205824 | 65 | 353 | 1.7 | 1.7 | 0.00 | 0.00 | 0.00 | 33 | 1020.4 |
| 20260502205319 | 65 | 287 | 5.2 | 7.0 | 0.00 | 0.00 | 0.00 | 30 | 1020.5 |
| 20260502204817 | 65 | 17 | 3.5 | 5.2 | 0.00 | 0.00 | 0.00 | 30 | 1020.5 |
| 20260502204314 | 64 | 27 | 0.9 | 1.7 | 0.00 | 0.00 | 0.00 | 30 | 1020.6 |
| 20260502203811 | 65 | 351 | 4.3 | 6.1 | 0.00 | 0.00 | 0.00 | 30 | 1020.5 |
| 20260502203309 | 64 | 281 | 2.6 | 2.6 | 0.00 | 0.00 | 0.00 | 32 | 1020.6 |
| 20260502202809 | 65 | 316 | 11.3 | 14.8 | 0.00 | 0.00 | 0.00 | 29 | 1020.6 |
| 20260502202307 | 65 | 326 | 2.6 | 2.6 | 0.00 | 0.00 | 0.00 | 29 | 1020.6 |
| 20260502201805 | 64 | 30 | 2.6 | 3.5 | 0.00 | 0.00 | 0.00 | 32 | 1020.6 |
| 20260502201300 | 64 | 12 | 2.6 | 3.5 | 0.00 | 0.00 | 0.00 | 33 | 1020.7 |
| 20260502200757 | 64 | 291 | 5.2 | 7.0 | 0.00 | 0.00 | 0.00 | 31 | 1020.8 |
| 20260502200253 | 64 | 329 | 5.2 | 7.8 | 0.00 | 0.00 | 0.00 | 32 | 1020.9 |
| 20260502195751 | 64 | 327 | 5.2 | 6.1 | 0.00 | 0.00 | 0.00 | 34 | 1020.8 |
| 20260502195247 | 64 | 43 | 7.0 | 8.7 | 0.00 | 0.00 | 0.00 | 32 | 1020.9 |
| 20260502194744 | 64 | 21 | 0.9 | 0.9 | 0.00 | 0.00 | 0.00 | 31 | 1021.0 |
| 20260502194241 | 64 | 327 | 6.1 | 7.8 | 0.00 | 0.00 | 0.00 | 32 | 1021.2 |
| 20260502193737 | 64 | 298 | 5.2 | 7.0 | 0.00 | 0.00 | 0.00 | 34 | 1021.2 |
| 20260502193235 | 64 | 343 | 2.6 | 5.2 | 0.00 | 0.00 | 0.00 | 34 | 1021.2 |